• In Hungary
  • List of Countries
  • For 7 days
  • Water Temperature
  • Satellite Maps
  • Weather Map
  • News
  • Weather Widgets
  • user-avatar
    Login

    Hourly Weather Rawson

    Today, 23 November, Thursday

    Time Temperature Precipitation Wind Pressure Humidity
    00:00 +16°C° 0.1 mm 10 mps 752 mmHg 42%
    01:00 +16°C° 0.1 mm 11 mps 752 mmHg 41%
    02:00 +16°C° 0 mm 10 mps 752 mmHg 39%
    03:00 +13°C° 0.3 mm 11 mps 752 mmHg 44%
    04:00 +12°C° 0.3 mm 12 mps 753 mmHg 50%
    05:00 +9°C° 0.3 mm 14 mps 754 mmHg 55%
    06:00 +9°C° 0.1 mm 14 mps 755 mmHg 48%
    07:00 +9°C° 0.1 mm 15 mps 756 mmHg 40%
    08:00 +9°C° 0.1 mm 16 mps 756 mmHg 33%
    09:00 +10°C° 0 mm 16 mps 757 mmHg 30%
    10:00 +10°C° 0 mm 16 mps 757 mmHg 28%
    11:00 +11°C° 0 mm 16 mps 758 mmHg 25%
    12:00 +11°C° 0 mm 16 mps 758 mmHg 24%
    13:00 +13°C° 0 mm 15 mps 759 mmHg 22%
    14:00 +13°C° 0 mm 15 mps 759 mmHg 21%
    15:00 +13°C° 0 mm 14 mps 759 mmHg 21%
    16:00 +13°C° 0 mm 13 mps 760 mmHg 21%
    17:00 +13°C° 0 mm 12 mps 760 mmHg 22%
    18:00 +12°C° 0 mm 10 mps 760 mmHg 24%
    19:00 +11°C° 0 mm 9 mps 760 mmHg 26%
    20:00 +10°C° 0 mm 7 mps 760 mmHg 28%
    21:00 +10°C° 0 mm 6 mps 760 mmHg 32%
    22:00 +9°C° 0 mm 5 mps 760 mmHg 36%
    23:00 +10°C° 0 mm 3 mps 760 mmHg 40%

    Tomorrow, 24 November, Friday

    Time Temperature Precipitation Wind Pressure Humidity
    00:00 +10°C° 0 mm 4 mps 760 mmHg 42%
    01:00 +8°C° 0 mm 4 mps 760 mmHg 43%
    02:00 +8°C° 0 mm 4 mps 760 mmHg 45%
    03:00 +8°C° 0 mm 5 mps 760 mmHg 44%
    04:00 +8°C° 0 mm 6 mps 759 mmHg 43%
    05:00 +8°C° 0 mm 7 mps 759 mmHg 42%
    06:00 +10°C° 0 mm 7 mps 759 mmHg 38%
    07:00 +14°C° 0 mm 7 mps 759 mmHg 34%
    08:00 +16°C° 0 mm 7 mps 759 mmHg 30%
    09:00 +17°C° 0 mm 7 mps 758 mmHg 28%
    10:00 +20°C° 0 mm 6 mps 758 mmHg 26%
    11:00 +21°C° 0 mm 6 mps 758 mmHg 24%
    12:00 +22°C° 0 mm 6 mps 757 mmHg 22%
    13:00 +23°C° 0 mm 6 mps 756 mmHg 20%
    14:00 +24°C° 0 mm 6 mps 756 mmHg 19%
    15:00 +26°C° 0 mm 6 mps 755 mmHg 18%
    16:00 +26°C° 0 mm 6 mps 754 mmHg 18%
    17:00 +26°C° 0 mm 6 mps 754 mmHg 18%
    18:00 +26°C° 0 mm 5 mps 754 mmHg 20%
    19:00 +25°C° 0 mm 5 mps 754 mmHg 21%
    20:00 +25°C° 0 mm 4 mps 754 mmHg 23%
    21:00 +23°C° 0 mm 6 mps 754 mmHg 25%
    22:00 +22°C° 0 mm 7 mps 755 mmHg 28%
    23:00 +22°C° 0 mm 8 mps 755 mmHg 30%

    Day after tomorrow, 25 November, Saturday

    Time Temperature Precipitation Wind Pressure Humidity
    00:00 +21°C° 0 mm 9 mps 755 mmHg 33%
    01:00 +19°C° 0 mm 9 mps 755 mmHg 36%
    02:00 +18°C° 0 mm 9 mps 755 mmHg 38%
    03:00 +18°C° 0 mm 9 mps 755 mmHg 40%
    04:00 +17°C° 0 mm 9 mps 755 mmHg 42%
    05:00 +17°C° 0 mm 8 mps 756 mmHg 43%
    06:00 +18°C° 0 mm 9 mps 756 mmHg 41%
    07:00 +21°C° 0 mm 9 mps 756 mmHg 38%
    08:00 +22°C° 0 mm 10 mps 756 mmHg 36%
    09:00 +24°C° 0 mm 9 mps 756 mmHg 32%
    10:00 +26°C° 0 mm 8 mps 756 mmHg 29%
    11:00 +28°C° 0 mm 7 mps 756 mmHg 26%
    12:00 +29°C° 0 mm 7 mps 756 mmHg 24%
    13:00 +30°C° 0 mm 6 mps 755 mmHg 23%
    14:00 +32°C° 0 mm 6 mps 755 mmHg 21%
    15:00 +32°C° 0 mm 6 mps 755 mmHg 21%
    16:00 +32°C° 0 mm 6 mps 754 mmHg 21%
    17:00 +32°C° 0 mm 6 mps 753 mmHg 21%
    18:00 +30°C° 0 mm 6 mps 753 mmHg 22%
    19:00 +29°C° 0 mm 6 mps 753 mmHg 24%
    20:00 +28°C° 0 mm 6 mps 753 mmHg 25%
    21:00 +27°C° 0 mm 8 mps 753 mmHg 27%
    22:00 +26°C° 0 mm 10 mps 753 mmHg 28%
    23:00 +23°C° 0 mm 11 mps 753 mmHg 29%

    26 November, Sunday

    Time Temperature Precipitation Wind Pressure Humidity
    00:00 +23°C° 0 mm 10 mps 753 mmHg 30%
    01:00 +22°C° 0 mm 10 mps 752 mmHg 31%
    02:00 +21°C° 0 mm 9 mps 752 mmHg 33%
    03:00 +19°C° 0 mm 9 mps 752 mmHg 34%
    04:00 +19°C° 0 mm 9 mps 752 mmHg 35%
    05:00 +18°C° 0 mm 8 mps 752 mmHg 36%
    06:00 +19°C° 0 mm 9 mps 752 mmHg 34%
    07:00 +21°C° 0 mm 10 mps 752 mmHg 32%
    08:00 +22°C° 0 mm 11 mps 752 mmHg 29%
    09:00 +23°C° 0 mm 12 mps 753 mmHg 29%
    10:00 +23°C° 0 mm 12 mps 753 mmHg 29%
    11:00 +24°C° 0 mm 13 mps 753 mmHg 28%
    12:00 +22°C° 0 mm 12 mps 753 mmHg 24%
    13:00 +21°C° 0 mm 11 mps 754 mmHg 21%
    14:00 +19°C° 0 mm 11 mps 755 mmHg 17%
    15:00 +19°C° 0 mm 11 mps 755 mmHg 17%
    16:00 +19°C° 0 mm 11 mps 756 mmHg 16%
    17:00 +19°C° 0 mm 10 mps 757 mmHg 16%
    18:00 +18°C° 0 mm 10 mps 758 mmHg 21%
    19:00 +16°C° 0 mm 10 mps 759 mmHg 27%
    20:00 +13°C° 0 mm 10 mps 760 mmHg 32%
    21:00 +13°C° 0 mm 9 mps 762 mmHg 32%
    22:00 +12°C° 0 mm 8 mps 763 mmHg 32%
    23:00 +11°C° 0 mm 7 mps 764 mmHg 31%

    27 November, Monday

    Time Temperature Precipitation Wind Pressure Humidity
    00:00 +11°C° 0 mm 7 mps 764 mmHg 35%
    01:00 +10°C° 0 mm 6 mps 765 mmHg 39%
    02:00 +10°C° 0 mm 5 mps 765 mmHg 42%
    03:00 +10°C° 0 mm 4 mps 766 mmHg 45%
    04:00 +10°C° 0 mm 3 mps 766 mmHg 47%
    05:00 +9°C° 0 mm 2 mps 766 mmHg 49%
    06:00 +10°C° 0 mm 2 mps 767 mmHg 43%
    07:00 +13°C° 0 mm 2 mps 767 mmHg 38%
    08:00 +14°C° 0 mm 1 mps 767 mmHg 33%
    09:00 +14°C° 0 mm 3 mps 767 mmHg 29%
    10:00 +17°C° 0 mm 4 mps 766 mmHg 25%
    11:00 +19°C° 0 mm 5 mps 766 mmHg 21%
    12:00 +20°C° 0 mm 6 mps 765 mmHg 19%
    13:00 +22°C° 0 mm 7 mps 764 mmHg 17%
    14:00 +24°C° 0 mm 9 mps 762 mmHg 14%
    15:00 +26°C° 0 mm 9 mps 761 mmHg 14%
    16:00 +27°C° 0 mm 10 mps 760 mmHg 15%
    17:00 +28°C° 0 mm 10 mps 759 mmHg 15%
    18:00 +27°C° 0 mm 10 mps 759 mmHg 16%
    19:00 +26°C° 0 mm 10 mps 758 mmHg 17%
    20:00 +26°C° 0 mm 10 mps 758 mmHg 19%
    21:00 +24°C° 0 mm 10 mps 758 mmHg 18%
    22:00 +24°C° 0 mm 10 mps 758 mmHg 17%
    23:00 +24°C° 0 mm 10 mps 757 mmHg 16%

    28 November, Tuesday

    Time Temperature Precipitation Wind Pressure Humidity
    00:00 +24°C° 0 mm 9 mps 757 mmHg 16%
    01:00 +23°C° 0 mm 8 mps 757 mmHg 16%
    02:00 +23°C° 0 mm 8 mps 756 mmHg 16%
    03:00 +22°C° 0 mm 7 mps 757 mmHg 18%
    04:00 +21°C° 0 mm 6 mps 757 mmHg 19%
    05:00 +20°C° 0 mm 5 mps 757 mmHg 21%
    06:00 +22°C° 0 mm 5 mps 758 mmHg 21%
    07:00 +23°C° 0 mm 4 mps 758 mmHg 21%
    08:00 +25°C° 0 mm 3 mps 758 mmHg 21%
    09:00 +26°C° 0 mm 3 mps 758 mmHg 20%
    10:00 +28°C° 0 mm 2 mps 758 mmHg 18%
    11:00 +29°C° 0 mm 2 mps 758 mmHg 17%
    12:00 +30°C° 0 mm 3 mps 757 mmHg 16%
    13:00 +31°C° 0 mm 3 mps 757 mmHg 16%
    14:00 +33°C° 0 mm 4 mps 756 mmHg 15%
    15:00 +33°C° 0 mm 4 mps 756 mmHg 15%
    16:00 +33°C° 0 mm 5 mps 755 mmHg 15%
    17:00 +33°C° 0 mm 6 mps 755 mmHg 15%
    18:00 +32°C° 0 mm 6 mps 755 mmHg 17%
    19:00 +30°C° 0 mm 6 mps 755 mmHg 19%
    20:00 +29°C° 0 mm 7 mps 755 mmHg 21%
    21:00 +28°C° 0 mm 7 mps 754 mmHg 22%
    22:00 +27°C° 0 mm 6 mps 754 mmHg 24%
    23:00 +26°C° 0 mm 6 mps 754 mmHg 26%
    Show more